Epoch 2022 Apr. 11.0 TT = JDT 2459680.5 T 2022 Apr. 21.04749 TT Rudenko q 0.2873218 (2000.0) P Q z -0.0003669 Peri. 299.99106 -0.56805253 -0.81247150 +/-0.0000025 Node 189.01994 +0.64618200 -0.53901744 e 1.0001054 Incl. 56.79113 -0.50967161 +0.22214918 From 713 observations 2021 July 26-2022 Feb. 1, mean residual 0".5.
m1 = 10.0 + 5 logΔ + 10.0 log r [ ,-10] ( 〜2022年 4月11日) m1 = 11.0 + 5 logΔ + 10.0 log r(t + 15) [-10, 4] (2022年 4月11日〜2022年 4月25日) m1 = 15.0 + 5 logΔ + 12.0 log r [ 4, ] (2022年 4月25日〜 ) ※ 灰色の曲線は、m1 = 10.0 + 5 logΔ + 10.0 log r の光度曲線です。